Regional Weather Roundup
Issued by NWS Grand Forks, ND

Home | Current Version | Previous Version | Graphics & Text | Print | Product List | Glossary On
Versions: 1 2 3 4 5 6 7 8 9 10 11 12 13 14 15 16 17 18 19 20 21 22 23 24 25 26 27 28 29 30 31 32 33 34 35 36 37 38 39 40 41 42 43 44 45 46 47 48 49 50
000
ASUS43 KFGF 042131
RWRFGF
PRAIRIE TO PINES  WEATHER ROUNDUP
NATIONAL WEATHER SERVICE EASTERN NORTH DAKOTA/GRAND FORKS ND
400 PM CDT MON MAY 04 2015

 **SATELLITE DATA USED TO AUGMENT SKY COVER AT AUTOMATED STATIONS**
 *****  WEATHER ACROSS EASTERN NORTH DAKOTA  *****

CITY           SKY/WX    TMP DP  RH WIND       PRES   REMARKS
GRAND FORKS    MOSUNNY   69  26  20 N7        30.18F
GRAND FRKS AFB SUNNY     68  26  20 VRB2      30.18F
GRAND FRKS NWS   N/A     70 N/A N/A NE1         N/A
DEVILS LAKE    SUNNY     66  27  22 SE8       30.16F
FARGO          MOSUNNY   69  27  20 CALM      30.18F
WAHPETON ARPT  MOCLDY    68  23  18 NE8       30.19F
$$

 ***** WEATHER ACROSS CENTRAL AND WESTERN NORTH DAKOTA  *****

CITY           SKY/WX    TMP DP  RH WIND       PRES   REMARKS
BISMARCK       SUNNY     69  25  19 SE14      30.17F
MINOT          SUNNY     70  24  17 SE9       30.11F
JAMESTOWN      MOSUNNY   68  25  19 N7        30.17F
MINOT AFB      SUNNY     71  26  18 SE15      30.10F
GARRISON         N/A     70  27  20 S13       30.12F
WILLISTON      SUNNY     73  29  19 SE15G22   30.05F
DICKINSON      SUNNY     63  36  36 S23G35    30.11F
HETTINGER      CLOUDY    58  37  45 S25       30.17F
$$

 *****  OTHER AIRPORT OBSERVATIONS IN OUR AREA  *****

CITY           SKY/WX    TMP DP  RH WIND       PRES   REMARKS
WALHALLA       FAIR      66  25  20 W5        30.15F
GRAFTON AIRPOR FAIR      66  27  22 CALM      30.17F
VALLEY CITY AR FAIR      66  27  22 CALM      30.18F
CANDO          FAIR      68  23  18 W8        30.16F
CAVALIER APRT  MOCLDY    66  23  19 CALM      30.15F
GWINNER        CLEAR     68  30  24 E7        30.19F
SHEYENNE NWR     N/A     69  28  21 NE5       29.95S
ROLLA          NOT AVBL
 ***** THE ABOVE OBSERVATIONS ARE NON NWS ARE NOT QUALITY
       CONTROLLED AND MAY MIS-REPORT RAIN FOR SNOW...
$$

  *****  WEATHER ACROSS NORTHERN MINNESOTA  *****

CITY           SKY/WX    TMP DP  RH WIND       PRES   REMARKS
FLAG ISLAND    PTSUNNY   55  37  50 S14       30.15F
WARROAD        MOSUNNY   63  30  29 W13G18    30.18F
ROSEAU         MOSUNNY   66  25  20 W9        30.17F
HALLOCK        MOSUNNY   66  19  16 NW7       30.16F
THF RVR FALLS  MOSUNNY   64  27  24 N6        30.19F
BAUDETTE       MOSUNNY   62  27  26 NW5       30.19F
WASKISH        SUNNY     63  34  34 CALM      30.21F
CROOKSTON      SUNNY     66  27  22 SW3       30.19F
$$
  *****  WEATHER ACROSS CENTRAL AND WEST MINNESOTA  *****

CITY           SKY/WX    TMP DP  RH WIND       PRES   REMARKS
FOSSTON        SUNNY     70  25  18 NW10      30.20S
BEMIDJI        SUNNY     64  25  22 E8        30.19F
PARK RAPIDS    PTSUNNY   64  28  25 VRB3      30.20F
ELBOW LAKE     FAIR      65  31  27 E5        30.19F
WADENA         CLOUDY    63  34  34 NE5       30.20F
DETROIT LAKES  PTSUNNY   64  28  25 SW3       30.21F
MOORHEAD       MOSUNNY   66  25  20 CALM      30.19F
FERGUS FALLS   PTSUNNY   66  32  28 CALM      30.19F
MORRIS MN      MOSUNNY   70  27  19 NW8       30.17F
STAPLES        PTSUNNY   64  28  25 W5        30.20S
$$
  *****  WEATHER ELSEWHERE ACROSS MINNESOTA  *****

CITY           SKY/WX    TMP DP  RH WIND       PRES   REMARKS
DULUTH         PTSUNNY   66  18  15 N10       30.18F
INTRNTL FALLS  MOSUNNY   63  28  26 N13       30.20F
ELY            SUNNY     63  19  19 N10G17    30.18F
CLOQUET        PTSUNNY   64  12  13 NW7       30.19S
WHEATON        MOSUNNY   66  30  26 N8        30.19F
BRAINERD       MOSUNNY   64  27  24 N9        30.21F
HIBBING        SUNNY     65  17  15 NW10      30.19S
ALEXANDRIA     PTSUNNY   66  29  24 MISG      30.21F
SAINT CLOUD    MOSUNNY   68  29  23 MISG      30.18F
MINNEAPOLIS    PTSUNNY   71  29  21 N9        30.17S
$$

  *****  WEATHER ACROSS SOUTH DAKOTA  *****

CITY           SKY/WX    TMP DP  RH WIND       PRES   REMARKS
SIOUX FALLS    CLOUDY    71  29  21 SE12      30.13F
BROOKINGS      PTSUNNY   70  27  19 E10       30.15F
WATERTOWN      PTSUNNY   69  25  19 E9        30.17F
HURON          PTSUNNY   71  24  17 E10       30.14F
SISSETON         N/A     69  21  16 CALM      30.17F
ABERDEEN       PTSUNNY   70  23  17 NE10G23   30.17F
MITCHELL       PTSUNNY   74  25  16 E13       30.13F
PIERRE         CLOUDY    67  22  18 E10       30.17F
MOBRIDGE       CLOUDY    66  24  20 SW8       30.17F
RAPID CITY     LGT RAIN  53  38  56 SE7       30.17F
$$

  *****  SOME WEATHER IN NEARBY STATES *****

CITY           SKY/WX    TMP DP  RH WIND       PRES   REMARKS
GLASGOW MT     SUNNY     73  40  30 SE23G29   29.93F
GREAT FALLS MT SUNNY     73  27  18 S7        29.84F
CHEYENNE WY    CLOUDY    55  43  63 S13       30.10F
SCOTTSBLUFF NE CLOUDY    60  38  43 SE12      30.11F
OMAHA NE       CLOUDY    65  60  84 N8        30.08F
DES MOINES IA  LGT RAIN  69  61  75 NE12      30.05F
DAVENPORT IA   PTSUNNY   73  60  63 E13       30.10F
CHICAGO IL     CLOUDY    70  56  61 E13       30.12S
EAU CLAIRE WI  MOSUNNY   70  28  21 MISG      30.15F
LA CROSSE WI   PTSUNNY   73  37  27 NW10      30.13F
$$

  *****  SOME NATIONAL WEATHER *****

CITY           SKY/WX    TMP DP  RH WIND       PRES   REMARKS
LA GUARDIA NY  MOSUNNY   80  44  27 S17       30.12F
RALEIGH NC     MOSUNNY   81  54  39 SW13      30.25F
ATLANTA GA     PTSUNNY   80  48  32 S10       30.25F
NEW ORLEANS LA PTSUNNY   80  62  54 SE13      30.14F
OKLAHOMA CITY  PTSUNNY   81  61  50 SE17G24   30.02F
ALBUQUERQUE NM PTSUNNY   70  40  33 E16G25    29.92F
SALT LAKE CITY CLOUDY    76  40  27 NW10G18   29.86F THUNDER
LOS ANGELES CA MOSUNNY   64  51  62 W15G21    29.98F
BOISE ID       SUNNY     83  33  16 VRB5      29.80F
SEATTLE WA     MOSUNNY   61  41  47 SW17G26   29.97R
$$

*** WEATHER ACROSS MANITOBA...SASKATCHEWAN AND ONTARIO ***
                ***ONTARIO***

CITY           SKY/WX    TMP DP  RH WIND       PRES   REMARKS
GERALDTON      MOSUNNY   55  28  35 W10       30.10F
THUNDER BAY    MOSUNNY   66  25  20 W9G21     30.14S
SIOUX LOOKOUT  PTSUNNY   57  32  38 NW10      30.16F
TORONTO        CLOUDY    68  54  60 W22       30.03S
BIG TROUT LK   LGT RAIN  37  36  93 NW12G18   30.02R
PICKLE LAKE    PTSUNNY   52  25  35 W12G26    30.07S
DRYDEN         MOSUNNY   59  28  31 W16G23    30.16F
KENORA         PTSUNNY   55  37  50 VRB5      30.18F
$$
                *** MANITOBA***

CITY           SKY/WX    TMP DP  RH WIND       PRES   REMARKS
BRANDON        PTSUNNY   63  30  29 W8G17     30.15
DAUPHIN        PTSUNNY   63  27  25 W8        30.12F
ISLAND LAKE    MOSUNNY   46  25  42 W14       30.08S
PILOT MOUND      N/A     64  27  24 W8          N/A
THE PAS        PTSUNNY   48  25  40 N7        30.15S
THOMPSON       PTSUNNY   41  18  38 NW18      30.09R
WINNIPEG       MOSUNNY   64  27  24 NW9G22    30.17F
LYNN LAKE      MOSUNNY   37  18  44 NW14G20   30.10S
CHURCHILL      FLURRIES  27  19  74 NW25G36   29.93R WCI  11
GILLAM         CLOUDY    36  23  60 W17G25    30.03R
$$
                ***SASKATCHEWAN***

CITY           SKY/WX    TMP DP  RH WIND       PRES   REMARKS
ESTEVAN        MOSUNNY   68  28  22 S6G20     30.07F
KINDERSLEY     PTSUNNY   70  32  24 MISG      29.89F
LLOYDMINSTER   CLOUDY    57  27  30 E14G23    29.99F
PRINCE ALBERT  CLOUDY    57  30  35 VRB3      30.08F
REGINA         MOSUNNY   66  30  26 S10G17    30.03F
YORKTON        MOSUNNY   63  27  25 W9        30.10F
N. BATTLEFORD  SUNNY     61  25  25 SE17      30.02F
LA RONGE       MOSUNNY   45  21  39 E6        30.16
SASKATOON      CLOUDY    64  27  24 S13       30.04F
SWIFT CURRENT  MOSUNNY   68  28  22 SE20G30   29.91F
$$
NOTE: THESE ARE AUTOMATED STATIONS WITH LIMITED QUALITY CONTROL
      "FAIR" INDICATES FEW OR NO CLOUDS BELOW 12,000 FEET WITH NO
      SIGNIFICANT WEATHER AND/OR OBSTRUCTIONS TO VISIBILITY.
      SKY/WX - SKY CONDITION AND SIGNIFICANT WEATHER.
      TMP - AIR TEMPERATURE.    DP   - DEWPOINT TEMPERATURE.
      RH  - RELATIVE HUMIDITY.  PRES - PRESSURE.
      HX  - HEAT INDEX.         WCI  - WIND CHILL INDEX.
$



USA.gov is the U.S. government's official web portal to all federal, state and local government web resources and services.